Flag for U.S.A. Weather past 2 weeks in Tampa, Florida, U.S.A.

Now
80 °F

Light rain. More clouds than sun.


Feels Like: 85 °F
Forecast: 71 / 82 °F
Wind: 6 mph from Northeast

Location: Tampa International Airport

Current Time: Sep 19, 2014 at 12:39:03 PM

Latest Report: Sep 19, 2014 at 11:53 AM


Visibility: 10 mi

Pressure: 29.97 "Hg

Humidity: 81%

Dew point: 74 °F

Location of TampaLocation

Historic Weather in Tampa — Graph

°F

Tampa temperature yesterday

Maximum temperature yesterday: 88 °F (at 3:53 PM)
Minimum temperature yesterday: 73 °F (at 2:53 AM)
Average temperature yesterday: 80 °F

Past Weeks' High & Low Weather Summary

 TemperatureHumidityPressure
High92 °F (Sep 10, 5:53 PM)97% (Sep 17, 11:53 AM)30.18 "Hg (Sep 17, 11:53 AM)
Low73 °F (Sep 17, 5:53 AM)42% (Sep 13, 3:53 PM)29.87 "Hg (Sep 18, 4:53 PM)
Average81 °F74%30.02 "Hg
* Reported Sep 4 10:53 AM — Sep 19 10:53 AM, Tampa, Weather by CustomWeather, © 2014

Note: Actual official high and low records may vary slightly from our data, if they occured in-between our weather recording intervals... More about our weather records

Advertising

Tampa weather history for previous 24 hours

 ConditionsComfort  
Time TempWeatherWind HumidityBarometerVisibility
10:53 AM
Sep 19
80 °FCloudy.5 mph79%29.97 "Hg10 mi
9:53 AM80 °FMore clouds than sun.5 mph79%29.96 "Hg10 mi
8:53 AM78 °FMostly cloudy.6 mph82%29.95 "Hg10 mi
7:53 AM77 °FMostly cloudy.5 mph85%29.94 "Hg10 mi
6:53 AM77 °FPassing clouds.6 mph85%29.92 "Hg10 mi
5:53 AM76 °FMostly cloudy.No wind88%29.90 "Hg10 mi
4:53 AM76 °FMostly cloudy.3 mph85%29.90 "Hg10 mi
3:53 AM77 °FMostly cloudy.3 mph79%29.91 "Hg10 mi
2:53 AM77 °FOvercast.3 mph79%29.92 "Hg10 mi
1:53 AM78 °FMostly cloudy.7 mph76%29.92 "Hg10 mi
12:53 AM79 °FMostly cloudy.3 mph74%29.93 "Hg10 mi
11:53 PM
Sep 18
80 °FMostly cloudy.3 mph71%29.94 "Hg10 mi
10:53 PM82 °FPartly cloudy.5 mph70%29.94 "Hg10 mi
9:53 PM82 °FPassing clouds.5 mph72%29.94 "Hg10 mi
8:53 PM82 °FPassing clouds.7 mph70%29.91 "Hg10 mi
7:53 PM83 °FPartly sunny.8 mph70%29.89 "Hg10 mi
6:53 PM84 °FBroken clouds.10 mph67%29.88 "Hg10 mi
5:53 PM86 °FScattered clouds.9 mph65%29.87 "Hg10 mi
4:53 PM87 °FScattered clouds.9 mph63%29.87 "Hg10 mi
3:53 PM88 °FScattered clouds.8 mph59%29.88 "Hg10 mi
2:53 PM87 °FScattered clouds.7 mph61%29.90 "Hg10 mi
1:53 PM85 °FBroken clouds.8 mph65%29.92 "Hg10 mi
12:53 PM84 °FScattered clouds.7 mph70%29.93 "Hg10 mi
Weather by CustomWeather, © 2014

See weather overviewHow to use our weather pages